RH
5 6 7 8 8 8 8 8 8 8 8 8 8 8 9 10 11 8 11 17 35 30 28 52 58 36 39 45 30 8 6 7 7
7 9 10 10 10 9 9 10 10 10 10 10 9 8 8 8 8 10 11 10 8 16 37 27 30 60 51 36 45 41 13 6 6
10 10 9 8 8 8 8 8 8 8 7 7 6 6 5 5 5 5 5 6 6 8 10 25 40 30 46 63 41 41 45 23 7
10 8 6 6 6 6 5 5 5 5 5 5 5 5 5 4 4 4 4 4 5 5 5 7 12 33 39 40 66 51 43 47 28
8 5 5 5 4 4 4 5 5 5 4 3 3 4 4 5 6 6 7 6 4 4 3 4 5 7 22 39 40 66 58 47 50
6 6 5 4 4 5 5 4 3 3 4 8 13 14 13 13 13 13 13 13 14 15 14 11 7 4 12 23 44 40 66 67 51
6 6 5 5 6 4 3 4 6 12 15 12 11 12 14 13 11 10 8 8 8 8 9 12 23 20 14 15 21 44 46 64 72
7 6 6 6 4 4 8 11 16 10 10 14 14 14 14 12 10 8 7 12 16 15 15 12 14 24 32 32 26 26 38 51 71
6 7 6 5 4 8 13 15 9 9 10 10 11 12 12 10 7 7 16 22 22 21 22 20 18 21 32 39 47 41 35 37 54
8 7 6 4 4 12 16 12 9 9 9 10 12 13 12 9 8 18 24 25 26 28 23 16 17 20 27 43 52 53 48 38 42
9 6 6 5 6 16 18 14 10 10 10 12 13 13 11 6 15 23 24 27 28 12 5 9 15 16 16 35 55 63 61 52 41
8 8 7 5 8 16 18 14 11 10 12 13 13 13 8 10 23 23 24 28 15 6 22 38 41 45 29 30 53 61 70 66 53
11 10 8 5 6 15 18 14 12 12 14 13 14 13 6 22 22 21 26 25 5 19 37 47 46 60 52 33 70 97 70 73 65
12 10 8 6 6 14 17 16 15 16 15 15 12 10 11 24 20 23 28 14 10 38 54 69 70 67 62 38 57 58 94 57 62
13 9 8 6 7 12 15 17 17 16 15 14 11 5 21 24 22 24 30 7 18 59 62 59 78 72 57 40 31 94 91 98 90
14 12 9 7 7 10 13 16 16 15 13 9 9 7 21 26 25 26 30 7 20 70 61 69 80 78 55 49 48 96 96 96 88
16 16 14 9 7 9 12 11 10 10 9 5 5 6 23 29 28 27 30 6 19 45 70 66 98 88 85 58 41 96 97 97 96
22 19 16 10 7 8 10 9 7 7 5 5 3 6 37 35 30 27 29 9 13 28 53 73 64 77 98 90 84 80 82 95 94
21 18 15 10 6 6 8 7 7 5 4 3 3 5 36 37 37 30 28 23 10 14 27 59 34 46 77 73 70 87 98 93 96
14 14 12 8 6 6 7 6 6 4 4 3 3 3 28 38 43 36 32 30 7 10 12 60 54 38 36 41 48 64 57 38 37
Wind_Speed
25 26 27 28 29 29 29 29 30 30 30 29 29 30 30 29 29 29 29 28 27 27 28 29 29 30 31 30 28 28 29 28 27
29 31 32 33 33 33 33 33 33 32 32 31 30 30 30 29 30 30 31 31 32 31 30 31 32 32 32 33 32 30 30 30 30
33 35 35 34 33 32 31 31 31 31 31 31 30 29 28 27 28 30 31 32 33 34 34 34 33 34 35 34 34 35 32 32 32
36 36 34 31 29 29 29 28 26 25 24 23 21 21 20 20 21 23 24 26 29 33 36 37 38 37 36 38 37 36 37 35 33
36 33 29 28 28 26 24 21 19 19 19 18 15 15 16 17 19 22 24 26 27 29 32 35 37 39 41 40 40 40 38 38 36
32 28 28 26 23 21 22 21 19 15 11 12 13 13 16 19 22 24 26 28 30 32 35 37 38 39 41 43 43 42 42 40 39
28 27 25 23 21 22 18 12 10 11 9 10 14 17 18 22 26 29 32 35 37 38 39 41 42 42 44 44 44 46 44 44 41
28 25 24 22 22 15 12 11 10 9 10 14 17 21 25 30 33 36 39 42 44 44 46 48 49 50 48 48 48 45 48 46 45
27 25 24 23 19 15 13 13 12 12 15 20 23 27 30 34 38 41 44 47 50 53 56 58 58 58 56 53 52 51 46 49 47
26 25 25 24 19 18 17 16 17 19 21 23 26 30 33 37 41 42 46 52 57 62 67 70 69 68 64 59 56 54 51 47 49
26 26 25 23 21 21 21 21 21 23 25 26 29 32 35 40 42 44 50 56 63 70 75 73 68 68 70 66 61 56 53 50 48
26 25 24 23 23 23 24 24 24 25 28 28 31 33 37 40 42 46 53 61 67 73 64 58 57 60 71 72 63 58 54 52 48
25 25 24 24 25 25 27 25 25 26 30 31 34 35 38 39 42 48 57 64 68 65 52 47 46 54 58 73 60 58 50 51 51
25 26 26 25 27 27 28 27 25 27 32 33 34 36 37 35 42 50 58 62 64 55 48 41 42 45 57 67 74 50 52 54 55
25 26 26 25 29 28 28 28 27 28 31 34 34 36 33 34 42 50 56 57 60 50 41 28 19 31 51 62 75 49 62 50 56
25 26 27 28 28 29 29 30 29 28 30 33 36 34 32 32 40 47 52 53 54 45 35 17 2 20 43 58 67 60 40 55 66
27 28 28 29 29 30 28 30 31 29 29 31 33 36 33 31 35 42 48 47 48 40 30 22 6 17 28 41 62 58 43 25 32
30 31 32 30 29 29 31 30 31 32 30 30 29 32 31 28 31 37 41 42 41 36 23 17 7 20 14 33 31 53 40 28 10
33 34 33 30 29 30 32 31 30 32 32 33 31 30 27 25 28 31 35 35 32 32 23 12 17 12 11 4 18 42 26 23 17
34 33 32 29 28 30 31 31 31 31 33 34 35 32 28 26 25 28 29 28 24 23 22 11 20 14 7 1 2 25 21 18 22
Wind_Direction
301 300 300 298 296 293 290 288 286 284 283 281 278 276 275 276 276 275 272 271 269 265 262 258 258 257 256 258 259 255 253 250 248
299 299 298 296 293 292 291 289 288 287 286 286 284 282 281 279 277 276 276 275 272 268 265 262 258 257 256 255 255 257 256 251 249
298 299 298 296 295 294 292 291 289 286 284 282 280 278 277 276 274 273 272 271 270 268 265 263 261 257 255 255 254 253 254 255 251
300 299 297 296 296 294 293 291 290 288 287 286 285 285 285 284 283 284 282 279 276 273 270 265 262 259 256 253 252 252 251 251 253
299 297 295 295 295 294 292 294 295 293 293 294 294 295 294 293 292 290 288 284 281 280 278 275 269 261 257 254 252 248 249 248 249
297 294 294 296 294 291 295 293 291 290 288 296 296 299 301 304 304 301 297 292 287 282 277 273 271 271 267 257 252 249 246 246 245
292 293 293 293 289 292 288 286 287 288 287 294 302 306 307 306 306 305 305 301 295 289 281 275 270 265 263 264 258 251 247 244 243
290 290 290 287 290 278 278 278 268 274 293 297 309 315 312 314 313 311 307 303 299 293 288 281 276 271 265 259 258 253 248 246 243
288 286 286 285 277 268 266 256 261 273 289 305 313 313 313 313 314 312 310 308 303 300 294 287 278 270 264 259 254 252 249 243 243
281 280 280 279 260 262 253 255 262 273 289 300 308 311 312 313 315 312 308 306 304 300 293 283 273 267 260 251 249 247 246 243 240
275 273 275 268 255 255 253 259 265 276 292 301 308 312 313 316 314 310 308 307 305 301 294 285 271 255 249 245 241 241 240 240 239
273 273 277 261 252 257 256 262 270 282 293 300 306 309 315 317 313 312 311 311 310 306 298 282 266 250 237 231 233 238 235 237 237
277 279 275 265 254 261 262 266 275 284 293 301 308 313 318 318 315 314 315 317 317 313 304 285 262 248 231 223 212 212 224 233 235
288 285 271 266 255 261 267 272 280 288 293 301 308 312 317 317 317 316 320 324 324 322 313 291 271 239 223 215 210 221 220 228 234
299 294 278 266 256 260 268 274 278 284 292 300 305 312 316 316 319 321 328 334 336 334 328 309 263 231 211 205 204 207 197 226 226
300 298 288 270 260 260 268 274 279 284 293 300 307 315 317 314 320 325 336 341 347 347 354 343 202 182 195 198 203 207 218 205 226
294 296 293 281 265 259 266 273 281 287 292 298 307 312 316 315 323 327 340 346 357 358 7 19 37 179 180 193 201 209 206 177 208
294 294 291 282 270 262 266 275 283 289 294 298 306 309 305 309 321 328 342 350 3 8 19 29 47 160 140 186 209 215 215 229 252
291 290 291 282 270 266 270 278 283 289 295 301 305 308 304 302 315 326 337 355 3 17 25 45 95 107 83 358 285 193 286 260 249
290 290 290 281 271 270 274 280 284 288 292 299 302 305 307 304 310 322 333 353 4 26 42 107 78 129 128 339 183 253 259 257 253